Time,TemperatureF,DewpointF,PressureIn,WindDirection,WindDirectionDegrees,WindSpeedMPH,WindSpeedGustMPH,Humidity,HourlyPrecipIn,Conditions,Clouds,dailyrainin,SoftwareType,DateUTC
2013-07-23 00:01:00,76.6,62.6,29.76,ENE,78,7.0,12.0,62,0.00,,,0.00,VWS V14.00,2013-07-23 05:01:00,
2013-07-23 00:06:00,76.6,62.6,29.76,ENE,67,5.0,8.0,62,0.00,,,0.00,VWS V14.00,2013-07-23 05:06:00,
2013-07-23 00:11:00,76.6,62.2,29.75,ENE,74,10.0,15.0,61,0.00,,,0.00,VWS V14.00,2013-07-23 05:11:00,
2013-07-23 00:16:00,76.6,62.2,29.75,ENE,65,11.0,15.0,61,0.00,,,0.00,VWS V14.00,2013-07-23 05:16:00,
2013-07-23 00:21:00,76.5,62.1,29.76,ENE,65,6.0,15.0,61,0.00,,,0.00,VWS V14.00,2013-07-23 05:21:00,
2013-07-23 00:26:00,76.4,62.4,29.76,East,84,0.0,17.0,62,0.00,,,0.00,VWS V14.00,2013-07-23 05:26:00,
2013-07-23 00:31:00,76.2,62.2,29.75,East,82,9.0,17.0,62,0.00,,,0.00,VWS V14.00,2013-07-23 05:31:00,
2013-07-23 00:36:00,76.0,62.0,29.76,ESE,117,0.0,4.0,62,0.00,,,0.00,VWS V14.00,2013-07-23 05:36:00,
2013-07-23 00:41:00,75.9,62.0,29.76,ENE,65,11.0,12.0,62,0.00,,,0.00,VWS V14.00,2013-07-23 05:41:00,
2013-07-23 00:46:00,75.8,61.9,29.76,ENE,65,3.0,12.0,62,0.00,,,0.00,VWS V14.00,2013-07-23 05:46:00,
2013-07-23 00:51:00,75.8,61.9,29.76,NE,55,1.0,13.0,62,0.00,,,0.00,VWS V14.00,2013-07-23 05:51:00,
2013-07-23 00:56:00,75.7,61.8,29.76,ENE,67,3.0,13.0,62,0.00,,,0.00,VWS V14.00,2013-07-23 05:56:00,
2013-07-23 01:01:00,75.6,61.7,29.76,NNE,18,4.0,13.0,62,0.00,,,0.00,VWS V14.00,2013-07-23 06:01:00,
2013-07-23 01:06:00,75.5,61.6,29.76,ENE,71,2.0,4.0,62,0.00,,,0.00,VWS V14.00,2013-07-23 06:06:00,
2013-07-23 01:11:00,75.5,61.6,29.77,ENE,69,0.0,4.0,62,0.00,,,0.00,VWS V14.00,2013-07-23 06:11:00,
2013-07-23 01:16:00,75.4,61.9,29.77,ENE,75,0.0,4.0,63,0.00,,,0.00,VWS V14.00,2013-07-23 06:16:00,
2013-07-23 01:21:00,75.2,61.8,29.77,East,86,0.0,7.0,63,0.00,,,0.00,VWS V14.00,2013-07-23 06:21:00,
2013-07-23 01:26:00,75.1,62.1,29.77,ENE,75,6.0,8.0,64,0.00,,,0.00,VWS V14.00,2013-07-23 06:26:00,
2013-07-23 01:31:00,74.9,61.9,29.77,East,94,0.0,8.0,64,0.00,,,0.00,VWS V14.00,2013-07-23 06:31:00,
2013-07-23 01:36:00,74.8,61.8,29.78,East,80,0.0,7.0,64,0.00,,,0.00,VWS V14.00,2013-07-23 06:36:00,
2013-07-23 01:41:00,74.7,61.7,29.78,ENE,61,0.0,7.0,64,0.00,,,0.00,VWS V14.00,2013-07-23 06:41:00,
2013-07-23 01:46:00,74.5,62.0,29.78,NE,52,0.0,7.0,65,0.00,,,0.00,VWS V14.00,2013-07-23 06:46:00,
2013-07-23 01:51:00,74.3,61.8,29.78,ENE,68,0.0,7.0,65,0.00,,,0.00,VWS V14.00,2013-07-23 06:51:00,
2013-07-23 01:56:00,74.2,62.1,29.77,ENE,71,0.0,7.0,66,0.00,,,0.00,VWS V14.00,2013-07-23 06:56:00,
2013-07-23 02:01:00,73.9,61.8,29.77,East,80,0.0,7.0,66,0.00,,,0.00,VWS V14.00,2013-07-23 07:01:00,
2013-07-23 02:06:00,73.6,62.0,29.77,East,80,0.0,0.0,67,0.00,,,0.00,VWS V14.00,2013-07-23 07:06:00,
2013-07-23 02:11:00,73.4,61.8,29.77,East,79,0.0,0.0,67,0.00,,,0.00,VWS V14.00,2013-07-23 07:11:00,
2013-07-23 02:16:00,73.1,61.9,29.77,East,80,0.0,0.0,68,0.00,,,0.00,VWS V14.00,2013-07-23 07:16:00,
2013-07-23 02:21:00,72.9,62.1,29.77,East,82,0.0,0.0,69,0.00,,,0.00,VWS V14.00,2013-07-23 07:21:00,
2013-07-23 02:26:00,72.6,61.9,29.77,East,80,0.0,1.0,69,0.00,,,0.00,VWS V14.00,2013-07-23 07:26:00,
2013-07-23 02:31:00,72.4,61.7,29.77,East,80,0.0,1.0,69,0.00,,,0.00,VWS V14.00,2013-07-23 07:31:00,
2013-07-23 02:36:00,72.3,62.0,29.77,East,80,0.0,0.0,70,0.00,,,0.00,VWS V14.00,2013-07-23 07:36:00,
2013-07-23 02:41:00,72.2,61.9,29.78,East,80,0.0,0.0,70,0.00,,,0.00,VWS V14.00,2013-07-23 07:41:00,
2013-07-23 02:46:00,72.1,61.8,29.78,East,80,0.0,0.0,70,0.00,,,0.00,VWS V14.00,2013-07-23 07:46:00,
2013-07-23 02:51:00,72.0,61.7,29.78,East,80,0.0,0.0,70,0.00,,,0.00,VWS V14.00,2013-07-23 07:51:00,
2013-07-23 02:56:00,71.9,61.6,29.77,East,80,0.0,0.0,70,0.00,,,0.00,VWS V14.00,2013-07-23 07:56:00,
2013-07-23 03:01:00,71.7,61.8,29.77,East,80,0.0,0.0,71,0.00,,,0.00,VWS V14.00,2013-07-23 08:01:00,
2013-07-23 03:06:00,71.6,61.7,29.76,East,80,0.0,0.0,71,0.00,,,0.00,VWS V14.00,2013-07-23 08:06:00,
2013-07-23 03:11:00,71.4,61.5,29.77,East,80,0.0,0.0,71,0.00,,,0.00,VWS V14.00,2013-07-23 08:11:00,
2013-07-23 03:16:00,71.3,61.4,29.77,East,80,0.0,0.0,71,0.00,,,0.00,VWS V14.00,2013-07-23 08:16:00,
2013-07-23 03:21:00,71.2,61.7,29.76,East,80,0.0,0.0,72,0.00,,,0.00,VWS V14.00,2013-07-23 08:21:00,
2013-07-23 03:26:00,71.1,61.6,29.77,East,80,0.0,0.0,72,0.00,,,0.00,VWS V14.00,2013-07-23 08:26:00,
2013-07-23 03:31:00,71.0,61.5,29.77,East,80,0.0,0.0,72,0.00,,,0.00,VWS V14.00,2013-07-23 08:31:00,
2013-07-23 03:36:00,71.0,61.5,29.77,East,80,0.0,0.0,72,0.00,,,0.00,VWS V14.00,2013-07-23 08:36:00,
2013-07-23 03:41:00,70.8,61.7,29.77,East,80,0.0,0.0,73,0.00,,,0.00,VWS V14.00,2013-07-23 08:41:00,
2013-07-23 03:46:00,70.7,61.6,29.76,East,80,0.0,0.0,73,0.00,,,0.00,VWS V14.00,2013-07-23 08:46:00,
2013-07-23 03:51:00,70.6,61.9,29.76,NW,323,0.0,0.0,74,0.00,,,0.00,VWS V14.00,2013-07-23 08:51:00,
2013-07-23 03:56:00,70.4,61.7,29.76,NW,317,0.0,0.0,74,0.00,,,0.00,VWS V14.00,2013-07-23 08:56:00,
2013-07-23 04:01:00,70.2,61.5,29.77,NNE,15,0.0,1.0,74,0.00,,,0.00,VWS V14.00,2013-07-23 09:01:00,
2013-07-23 04:06:00,70.1,61.8,29.77,NW,319,0.0,0.0,75,0.00,,,0.00,VWS V14.00,2013-07-23 09:06:00,
2013-07-23 04:11:00,69.9,61.6,29.77,NW,318,0.0,0.0,75,0.00,,,0.00,VWS V14.00,2013-07-23 09:11:00,
2013-07-23 04:16:00,69.8,61.5,29.77,NNW,331,0.0,0.0,75,0.00,,,0.00,VWS V14.00,2013-07-23 09:16:00,
2013-07-23 04:21:00,69.6,61.7,29.77,North,9,0.0,1.0,76,0.00,,,0.00,VWS V14.00,2013-07-23 09:21:00,
2013-07-23 04:25:00,69.4,61.5,29.77,NNE,13,0.0,1.0,76,0.00,,,0.00,VWS V14.00,2013-07-23 09:25:00,
2013-07-23 04:30:00,69.3,61.4,29.77,NNE,19,0.0,2.0,76,0.00,,,0.00,VWS V14.00,2013-07-23 09:30:00,
2013-07-23 04:35:00,69.1,61.6,29.78,NNW,336,0.0,0.0,77,0.00,,,0.00,VWS V14.00,2013-07-23 09:35:00,
2013-07-23 04:40:00,69.0,61.5,29.78,NNW,337,0.0,0.0,77,0.00,,,0.00,VWS V14.00,2013-07-23 09:40:00,
2013-07-23 04:45:00,68.8,61.7,29.78,NNW,344,0.0,1.0,78,0.00,,,0.00,VWS V14.00,2013-07-23 09:45:00,
2013-07-23 04:50:00,68.6,61.5,29.78,North,360,0.0,4.0,78,0.00,,,0.00,VWS V14.00,2013-07-23 09:50:00,
2013-07-23 04:55:00,68.5,61.7,29.78,NNW,338,0.0,4.0,79,0.00,,,0.00,VWS V14.00,2013-07-23 09:55:00,
2013-07-23 05:00:00,68.3,61.5,29.79,NNW,348,0.0,6.0,79,0.00,,,0.00,VWS V14.00,2013-07-23 10:00:00,
2013-07-23 05:05:00,68.2,61.5,29.80,NNW,327,0.0,0.0,79,0.00,,,0.00,VWS V14.00,2013-07-23 10:05:00,
2013-07-23 05:10:00,68.1,61.7,29.83,WNW,303,3.0,10.0,80,0.00,,,0.00,VWS V14.00,2013-07-23 10:10:00,
2013-07-23 05:15:00,68.2,61.8,29.86,NW,322,9.0,16.0,80,0.00,,,0.00,VWS V14.00,2013-07-23 10:15:00,
2013-07-23 05:20:00,68.4,62.0,29.87,WNW,303,0.0,20.0,80,0.00,,,0.00,VWS V14.00,2013-07-23 10:20:00,
2013-07-23 05:25:00,68.6,62.2,29.89,WNW,303,2.0,20.0,80,0.00,,,0.00,VWS V14.00,2013-07-23 10:25:00,
2013-07-23 05:30:00,68.6,62.2,29.88,NNW,346,13.0,29.0,80,0.00,,,0.00,VWS V14.00,2013-07-23 10:30:00,
2013-07-23 05:35:00,68.9,62.1,29.89,NNW,332,11.0,11.0,79,0.00,,,0.00,VWS V14.00,2013-07-23 10:35:00,
2013-07-23 05:40:00,69.3,62.5,29.87,NNW,334,23.0,31.0,79,0.00,,,0.00,VWS V14.00,2013-07-23 10:40:00,
2013-07-23 05:45:00,69.1,63.4,29.87,WNW,288,11.0,31.0,82,2.10,,,0.13,VWS V14.00,2013-07-23 10:45:00,
2013-07-23 05:50:00,67.8,63.1,29.89,WNW,291,6.0,31.0,85,1.28,,,0.30,VWS V14.00,2013-07-23 10:50:00,
2013-07-23 05:55:00,66.2,61.6,29.89,NW,322,13.0,31.0,85,0.57,,,0.38,VWS V14.00,2013-07-23 10:55:00,
2013-07-23 06:00:00,65.1,60.8,29.89,NNE,13,1.0,31.0,86,0.15,,,0.39,VWS V14.00,2013-07-23 11:00:00,
2013-07-23 06:05:00,64.5,60.5,29.89,NW,323,6.0,31.0,87,0.10,,,0.40,VWS V14.00,2013-07-23 11:05:00,
2013-07-23 06:10:00,64.5,61.2,29.91,NW,319,3.0,14.0,89,0.10,,,0.40,VWS V14.00,2013-07-23 11:10:00,
2013-07-23 06:15:00,64.7,61.4,29.91,North,355,1.0,14.0,89,0.07,,,0.41,VWS V14.00,2013-07-23 11:15:00,
2013-07-23 06:20:00,64.9,61.9,29.91,North,355,0.0,14.0,90,0.13,,,0.42,VWS V14.00,2013-07-23 11:20:00,
2013-07-23 06:25:00,65.2,62.2,29.88,NNE,25,3.0,17.0,90,0.39,,,0.45,VWS V14.00,2013-07-23 11:25:00,
2013-07-23 06:30:00,65.4,62.7,29.88,North,355,0.0,17.0,91,0.16,,,0.47,VWS V14.00,2013-07-23 11:30:00,
2013-07-23 06:35:00,65.5,62.8,29.88,ENE,58,0.0,17.0,91,0.11,,,0.47,VWS V14.00,2013-07-23 11:35:00,
2013-07-23 06:40:00,65.5,62.8,29.87,NNE,15,0.0,0.0,91,0.06,,,0.47,VWS V14.00,2013-07-23 11:40:00,
2013-07-23 06:45:00,65.4,62.7,29.90,NNW,331,0.0,0.0,91,0.05,,,0.48,VWS V14.00,2013-07-23 11:45:00,
2013-07-23 06:50:00,65.4,62.7,29.91,NW,309,0.0,0.0,91,0.05,,,0.48,VWS V14.00,2013-07-23 11:50:00,
2013-07-23 06:55:00,65.5,62.8,29.91,NNW,344,0.0,0.0,91,0.23,,,0.50,VWS V14.00,2013-07-23 11:55:00,
2013-07-23 07:00:00,65.5,62.8,29.90,NNW,344,0.0,0.0,91,0.13,,,0.51,VWS V14.00,2013-07-23 12:00:00,
2013-07-23 07:05:00,65.6,63.2,29.90,ENE,74,0.0,0.0,92,0.11,,,0.52,VWS V14.00,2013-07-23 12:05:00,
2013-07-23 07:10:00,65.5,63.1,29.89,East,89,0.0,1.0,92,0.13,,,0.53,VWS V14.00,2013-07-23 12:10:00,
2013-07-23 07:15:00,65.4,63.0,29.89,North,349,0.0,1.0,92,0.17,,,0.55,VWS V14.00,2013-07-23 12:15:00,
2013-07-23 07:20:00,65.4,63.0,29.88,East,80,0.0,2.0,92,0.17,,,0.56,VWS V14.00,2013-07-23 12:20:00,
2013-07-23 07:25:00,65.4,63.0,29.86,East,89,1.0,2.0,92,0.16,,,0.57,VWS V14.00,2013-07-23 12:25:00,
2013-07-23 07:30:00,65.3,62.9,29.84,ENE,78,0.0,3.0,92,0.15,,,0.58,VWS V14.00,2013-07-23 12:30:00,
2013-07-23 07:35:00,65.2,62.8,29.83,East,84,0.0,3.0,92,0.08,,,0.59,VWS V14.00,2013-07-23 12:35:00,
2013-07-23 07:40:00,65.3,62.9,29.83,East,88,0.0,0.0,92,0.08,,,0.59,VWS V14.00,2013-07-23 12:40:00,
2013-07-23 07:45:00,65.3,62.9,29.82,SE,134,4.0,4.0,92,0.05,,,0.59,VWS V14.00,2013-07-23 12:45:00,
2013-07-23 07:50:00,65.2,62.5,29.83,SSE,160,0.0,4.0,91,0.04,,,0.59,VWS V14.00,2013-07-23 12:50:00,
2013-07-23 07:55:00,65.2,62.8,29.84,NNW,338,0.0,4.0,92,0.00,,,0.59,VWS V14.00,2013-07-23 12:55:00,
2013-07-23 08:00:00,65.4,63.0,29.84,North,355,0.0,4.0,92,0.00,,,0.59,VWS V14.00,2013-07-23 13:00:00,
2013-07-23 08:05:00,65.4,62.7,29.83,ENE,71,0.0,4.0,91,0.00,,,0.59,VWS V14.00,2013-07-23 13:05:00,
2013-07-23 08:10:00,65.2,62.5,29.83,ENE,63,0.0,3.0,91,0.00,,,0.59,VWS V14.00,2013-07-23 13:10:00,
2013-07-23 08:15:00,65.2,62.5,29.83,East,82,0.0,3.0,91,0.00,,,0.59,VWS V14.00,2013-07-23 13:15:00,
2013-07-23 08:20:00,65.2,62.8,29.83,ENE,75,0.0,3.0,92,0.00,,,0.59,VWS V14.00,2013-07-23 13:20:00,
2013-07-23 08:25:00,65.2,62.5,29.82,East,82,0.0,3.0,91,0.00,,,0.59,VWS V14.00,2013-07-23 13:25:00,
2013-07-23 08:30:00,65.0,62.3,29.81,ENE,71,0.0,3.0,91,0.00,,,0.59,VWS V14.00,2013-07-23 13:30:00,
2013-07-23 08:35:00,64.9,61.9,29.80,ESE,116,2.0,12.0,90,0.00,,,0.59,VWS V14.00,2013-07-23 13:35:00,
2013-07-23 08:40:00,64.9,61.9,29.79,East,91,4.0,9.0,90,0.00,,,0.59,VWS V14.00,2013-07-23 13:40:00,
2013-07-23 08:45:00,64.9,61.9,29.78,East,101,6.0,10.0,90,0.00,,,0.59,VWS V14.00,2013-07-23 13:45:00,
2013-07-23 08:50:00,64.8,61.5,29.78,ENE,75,6.0,12.0,89,0.00,,,0.59,VWS V14.00,2013-07-23 13:50:00,
2013-07-23 08:55:00,64.8,61.2,29.78,East,82,0.0,12.0,88,0.00,,,0.59,VWS V14.00,2013-07-23 13:55:00,
2013-07-23 09:00:00,64.8,61.2,29.78,ENE,71,0.0,12.0,88,0.00,,,0.59,VWS V14.00,2013-07-23 14:00:00,
2013-07-23 09:05:00,64.9,61.3,29.80,ENE,61,0.0,12.0,88,0.00,,,0.59,VWS V14.00,2013-07-23 14:05:00,
2013-07-23 09:10:00,65.0,61.4,29.81,East,86,0.0,7.0,88,0.00,,,0.59,VWS V14.00,2013-07-23 14:10:00,
2013-07-23 09:15:00,65.0,61.4,29.80,East,82,3.0,7.0,88,0.00,,,0.59,VWS V14.00,2013-07-23 14:15:00,
2013-07-23 09:20:00,65.2,61.2,29.80,East,86,1.0,10.0,87,0.00,,,0.59,VWS V14.00,2013-07-23 14:20:00,
2013-07-23 09:25:00,65.4,61.4,29.79,ENE,74,0.0,10.0,87,0.00,,,0.59,VWS V14.00,2013-07-23 14:25:00,
2013-07-23 09:30:00,65.6,61.3,29.79,East,91,4.0,10.0,86,0.00,,,0.59,VWS V14.00,2013-07-23 14:30:00,
2013-07-23 09:35:00,65.8,61.5,29.80,East,84,0.0,10.0,86,0.00,,,0.59,VWS V14.00,2013-07-23 14:35:00,
2013-07-23 09:40:00,66.1,62.1,29.79,ENE,61,0.0,4.0,87,0.00,,,0.59,VWS V14.00,2013-07-23 14:40:00,
2013-07-23 09:45:00,66.5,62.2,29.79,East,94,2.0,5.0,86,0.00,,,0.59,VWS V14.00,2013-07-23 14:45:00,
2013-07-23 09:50:00,66.9,62.6,29.79,ESE,102,0.0,5.0,86,0.00,,,0.59,VWS V14.00,2013-07-23 14:50:00,
2013-07-23 09:55:00,67.3,62.6,29.79,East,87,1.0,5.0,85,0.00,,,0.59,VWS V14.00,2013-07-23 14:55:00,
2013-07-23 10:00:00,67.6,62.6,29.80,ESE,117,0.0,5.0,84,0.00,,,0.59,VWS V14.00,2013-07-23 15:00:00,
2013-07-23 10:05:00,67.9,62.9,29.80,SE,138,1.0,5.0,84,0.00,,,0.59,VWS V14.00,2013-07-23 15:05:00,
2013-07-23 10:10:00,68.2,62.8,29.81,SE,138,0.0,0.0,83,0.00,,,0.59,VWS V14.00,2013-07-23 15:10:00,
2013-07-23 10:15:00,68.7,63.3,29.83,West,280,0.0,0.0,83,0.00,,,0.59,VWS V14.00,2013-07-23 15:15:00,
2013-07-23 10:20:00,69.3,63.9,29.83,WNW,282,0.0,3.0,83,0.00,,,0.59,VWS V14.00,2013-07-23 15:20:00,
2013-07-23 10:25:00,69.7,64.0,29.82,WNW,292,0.0,3.0,82,0.00,,,0.59,VWS V14.00,2013-07-23 15:25:00,
2013-07-23 10:30:00,70.6,64.8,29.82,NW,307,0.0,3.0,82,0.00,,,0.59,VWS V14.00,2013-07-23 15:30:00,
2013-07-23 10:35:00,71.5,64.7,29.82,NW,309,0.0,3.0,79,0.00,,,0.59,VWS V14.00,2013-07-23 15:35:00,
2013-07-23 10:40:00,72.6,65.0,29.83,ESE,110,4.0,6.0,77,0.00,,,0.59,VWS V14.00,2013-07-23 15:40:00,
2013-07-23 10:45:00,73.4,65.0,29.84,South,176,2.0,6.0,75,0.00,,,0.59,VWS V14.00,2013-07-23 15:45:00,
2013-07-23 10:50:00,73.7,65.3,29.85,SSW,211,0.0,7.0,75,0.00,,,0.59,VWS V14.00,2013-07-23 15:50:00,
2013-07-23 10:55:00,73.8,65.0,29.86,SSW,211,0.0,7.0,74,0.00,,,0.59,VWS V14.00,2013-07-23 15:55:00,
2013-07-23 11:00:00,73.9,65.1,29.86,WNW,295,1.0,7.0,74,0.00,,,0.59,VWS V14.00,2013-07-23 16:00:00,
2013-07-23 11:05:00,74.2,65.4,29.86,WNW,293,3.0,7.0,74,0.00,,,0.59,VWS V14.00,2013-07-23 16:05:00,
2013-07-23 11:09:00,74.4,66.0,29.86,NW,306,1.0,3.0,75,0.00,,,0.59,VWS V14.00,2013-07-23 16:09:00,
2013-07-23 11:14:00,74.4,65.2,29.87,WNW,284,0.0,4.0,73,0.00,,,0.59,VWS V14.00,2013-07-23 16:14:00,
2013-07-23 11:19:00,74.5,65.7,29.86,WNW,290,0.0,4.0,74,0.00,,,0.59,VWS V14.00,2013-07-23 16:19:00,
2013-07-23 11:24:00,74.9,65.3,29.86,WNW,298,2.0,4.0,72,0.00,,,0.59,VWS V14.00,2013-07-23 16:24:00,
2013-07-23 11:29:00,75.7,66.4,29.86,NNE,26,0.0,5.0,73,0.00,,,0.59,VWS V14.00,2013-07-23 16:29:00,
2013-07-23 11:34:00,76.3,67.0,29.85,NE,41,3.0,7.0,73,0.00,,,0.59,VWS V14.00,2013-07-23 16:34:00,
2013-07-23 11:39:00,76.4,67.1,29.85,NE,34,0.0,5.0,73,0.00,,,0.59,VWS V14.00,2013-07-23 16:39:00,
2013-07-23 11:44:00,75.9,66.2,29.85,NNW,332,0.0,9.0,72,0.00,,,0.59,VWS V14.00,2013-07-23 16:44:00,
2013-07-23 11:49:00,75.3,66.4,29.84,NE,51,0.0,9.0,74,0.00,,,0.59,VWS V14.00,2013-07-23 16:49:00,
2013-07-23 11:54:00,74.9,66.4,29.85,ENE,77,0.0,9.0,75,0.00,,,0.59,VWS V14.00,2013-07-23 16:54:00,
2013-07-23 11:59:00,74.7,66.3,29.85,NNE,13,4.0,9.0,75,0.00,,,0.59,VWS V14.00,2013-07-23 16:59:00,
2013-07-23 12:04:00,74.3,66.2,29.86,NE,52,0.0,9.0,76,0.00,,,0.59,VWS V14.00,2013-07-23 17:04:00,
2013-07-23 12:09:00,74.2,66.2,29.87,NE,53,0.0,9.0,76,0.00,,,0.59,VWS V14.00,2013-07-23 17:09:00,
2013-07-23 12:14:00,74.1,65.7,29.87,NNE,30,0.0,9.0,75,0.00,,,0.59,VWS V14.00,2013-07-23 17:14:00,
2013-07-23 12:19:00,74.3,66.6,29.87,North,360,2.0,9.0,77,0.00,,,0.59,VWS V14.00,2013-07-23 17:19:00,
2013-07-23 12:24:00,74.5,66.4,29.87,NE,36,0.0,9.0,76,0.00,,,0.59,VWS V14.00,2013-07-23 17:24:00,
2013-07-23 12:29:00,74.6,65.8,29.88,North,5,5.0,9.0,74,0.00,,,0.59,VWS V14.00,2013-07-23 17:29:00,
2013-07-23 12:34:00,74.7,65.5,29.88,WNW,300,4.0,9.0,73,0.00,,,0.59,VWS V14.00,2013-07-23 17:34:00,
2013-07-23 12:39:00,74.8,66.0,29.88,NNE,24,1.0,1.0,74,0.00,,,0.59,VWS V14.00,2013-07-23 17:39:00,
2013-07-23 12:44:00,74.4,64.8,29.88,North,5,0.0,4.0,72,0.00,,,0.59,VWS V14.00,2013-07-23 17:44:00,
2013-07-23 12:49:00,74.4,65.2,29.87,East,88,0.0,4.0,73,0.00,,,0.59,VWS V14.00,2013-07-23 17:49:00,
2013-07-23 12:54:00,74.2,65.0,29.85,ENE,67,0.0,6.0,73,0.00,,,0.59,VWS V14.00,2013-07-23 17:54:00,
2013-07-23 12:59:00,74.0,64.8,29.84,East,96,4.0,6.0,73,0.00,,,0.59,VWS V14.00,2013-07-23 17:59:00,
2013-07-23 13:04:00,73.8,64.2,29.82,East,79,7.0,12.0,72,0.00,,,0.59,VWS V14.00,2013-07-23 18:04:00,
2013-07-23 13:10:00,73.3,64.9,29.81,East,90,11.0,14.0,75,0.00,,,0.59,VWS V14.00,2013-07-23 18:10:00,
2013-07-23 13:15:00,73.3,64.5,29.84,East,82,4.0,14.0,74,0.00,,,0.59,VWS V14.00,2013-07-23 18:15:00,
2013-07-23 13:20:00,73.4,65.0,29.83,ESE,102,0.0,14.0,75,0.00,,,0.59,VWS V14.00,2013-07-23 18:20:00,
2013-07-23 13:25:00,73.5,65.1,29.84,East,81,3.0,14.0,75,0.00,,,0.59,VWS V14.00,2013-07-23 18:25:00,
2013-07-23 13:29:00,73.5,64.7,29.84,East,87,0.0,14.0,74,0.00,,,0.59,VWS V14.00,2013-07-23 18:29:00,
2013-07-23 13:34:00,73.5,65.1,29.83,East,90,2.0,14.0,75,0.00,,,0.59,VWS V14.00,2013-07-23 18:34:00,
2013-07-23 13:39:00,73.3,64.9,29.83,East,93,9.0,11.0,75,0.00,,,0.59,VWS V14.00,2013-07-23 18:39:00,
2013-07-23 13:44:00,73.1,65.1,29.85,ENE,66,0.0,13.0,76,0.00,,,0.59,VWS V14.00,2013-07-23 18:44:00,
2013-07-23 13:49:00,73.2,64.8,29.85,ENE,63,0.0,13.0,75,0.00,,,0.59,VWS V14.00,2013-07-23 18:49:00,
2013-07-23 13:54:00,73.2,64.8,29.85,NE,49,9.0,13.0,75,0.00,,,0.59,VWS V14.00,2013-07-23 18:54:00,
2013-07-23 13:59:00,73.2,65.2,29.85,ENE,66,9.0,13.0,76,0.00,,,0.59,VWS V14.00,2013-07-23 18:59:00,
2013-07-23 14:04:00,73.5,65.1,29.86,ENE,72,3.0,13.0,75,0.00,,,0.59,VWS V14.00,2013-07-23 19:04:00,
2013-07-23 14:10:00,74.1,65.3,29.86,ENE,65,2.0,18.0,74,0.00,,,0.59,VWS V14.00,2013-07-23 19:10:00,
2013-07-23 14:15:00,74.9,65.7,29.86,ENE,74,4.0,18.0,73,0.00,,,0.59,VWS V14.00,2013-07-23 19:15:00,
2013-07-23 14:20:00,75.4,65.3,29.86,NNE,18,0.0,18.0,71,0.00,,,0.59,VWS V14.00,2013-07-23 19:20:00,
2013-07-23 14:25:00,75.7,65.2,29.87,ENE,78,2.0,18.0,70,0.00,,,0.59,VWS V14.00,2013-07-23 19:25:00,
2013-07-23 14:30:00,76.1,65.6,29.87,East,86,7.0,18.0,70,0.00,,,0.59,VWS V14.00,2013-07-23 19:30:00,
2013-07-23 14:35:00,76.1,65.6,29.87,East,91,0.0,18.0,70,0.00,,,0.59,VWS V14.00,2013-07-23 19:35:00,
2013-07-23 14:40:00,76.1,66.0,29.87,East,80,0.0,7.0,71,0.00,,,0.59,VWS V14.00,2013-07-23 19:40:00,
2013-07-23 14:45:00,76.6,66.1,29.87,NE,36,0.0,8.0,70,0.00,,,0.59,VWS V14.00,2013-07-23 19:45:00,
2013-07-23 14:50:00,77.1,67.0,29.87,East,86,10.0,10.0,71,0.00,,,0.59,VWS V14.00,2013-07-23 19:50:00,
2013-07-23 14:55:00,77.0,66.1,29.87,East,86,4.0,10.0,69,0.00,,,0.59,VWS V14.00,2013-07-23 19:55:00,
2013-07-23 15:00:00,76.8,65.0,29.88,ENE,70,2.0,10.0,67,0.00,,,0.59,VWS V14.00,2013-07-23 20:00:00,
2013-07-23 15:05:00,76.7,65.3,29.88,East,90,0.0,10.0,68,0.00,,,0.59,VWS V14.00,2013-07-23 20:05:00,
2013-07-23 15:10:00,76.8,65.9,29.87,East,80,0.0,5.0,69,0.00,,,0.59,VWS V14.00,2013-07-23 20:10:00,
2013-07-23 15:15:00,76.6,65.7,29.87,NNE,28,3.0,9.0,69,0.00,,,0.59,VWS V14.00,2013-07-23 20:15:00,
2013-07-23 15:20:00,76.5,65.6,29.88,ENE,71,0.0,9.0,69,0.00,,,0.59,VWS V14.00,2013-07-23 20:20:00,
2013-07-23 15:25:00,76.8,66.3,29.88,East,90,0.0,9.0,70,0.00,,,0.59,VWS V14.00,2013-07-23 20:25:00,
2013-07-23 15:30:00,77.7,66.3,29.88,NE,51,1.0,9.0,68,0.00,,,0.59,VWS V14.00,2013-07-23 20:30:00,
2013-07-23 15:35:00,77.8,66.4,29.88,ENE,60,0.0,10.0,68,0.00,,,0.59,VWS V14.00,2013-07-23 20:35:00,
2013-07-23 15:40:00,78.4,65.7,29.88,ESE,103,0.0,7.0,65,0.00,,,0.59,VWS V14.00,2013-07-23 20:40:00,
2013-07-23 15:45:00,79.1,65.9,29.88,East,92,0.0,9.0,64,0.00,,,0.59,VWS V14.00,2013-07-23 20:45:00,
2013-07-23 15:50:00,79.6,66.4,29.88,North,10,0.0,9.0,64,0.00,,,0.59,VWS V14.00,2013-07-23 20:50:00,
2013-07-23 15:55:00,79.7,66.5,29.88,NE,49,0.0,9.0,64,0.00,,,0.59,VWS V14.00,2013-07-23 20:55:00,
2013-07-23 16:00:00,80.1,66.4,29.88,West,265,0.0,9.0,63,0.00,,,0.59,VWS V14.00,2013-07-23 21:00:00,
2013-07-23 16:05:00,80.6,65.9,29.87,North,350,0.0,9.0,61,0.00,,,0.59,VWS V14.00,2013-07-23 21:05:00,
2013-07-23 16:10:00,80.7,66.0,29.88,North,355,0.0,10.0,61,0.00,,,0.59,VWS V14.00,2013-07-23 21:10:00,
2013-07-23 16:15:00,80.8,65.2,29.88,ESE,122,1.0,10.0,59,0.00,,,0.59,VWS V14.00,2013-07-23 21:15:00,
2013-07-23 16:20:00,80.8,65.6,29.88,North,11,0.0,10.0,60,0.00,,,0.59,VWS V14.00,2013-07-23 21:20:00,
2013-07-23 16:25:00,80.9,65.7,29.87,ESE,123,0.0,10.0,60,0.00,,,0.59,VWS V14.00,2013-07-23 21:25:00,
2013-07-23 16:30:00,80.9,65.7,29.88,NE,34,0.0,10.0,60,0.00,,,0.59,VWS V14.00,2013-07-23 21:30:00,
2013-07-23 16:35:00,81.2,66.5,29.87,NE,51,0.0,10.0,61,0.00,,,0.59,VWS V14.00,2013-07-23 21:35:00,
2013-07-23 16:40:00,81.4,66.2,29.88,SE,125,6.0,7.0,60,0.00,,,0.59,VWS V14.00,2013-07-23 21:40:00,
2013-07-23 16:45:00,81.2,66.0,29.87,ENE,67,4.0,9.0,60,0.00,,,0.59,VWS V14.00,2013-07-23 21:45:00,
2013-07-23 16:50:00,81.2,66.5,29.87,NE,42,2.0,10.0,61,0.00,,,0.59,VWS V14.00,2013-07-23 21:50:00,
2013-07-23 16:55:00,81.0,66.8,29.87,East,82,0.0,11.0,62,0.00,,,0.59,VWS V14.00,2013-07-23 21:55:00,
2013-07-23 17:00:00,81.2,66.5,29.87,ENE,65,3.0,11.0,61,0.00,,,0.59,VWS V14.00,2013-07-23 22:00:00,
2013-07-23 17:05:00,81.0,65.8,29.87,NNW,335,0.0,0.0,60,0.00,,,0.59,VWS V14.00,2013-07-23 22:05:00,
2013-07-23 17:10:00,81.2,66.5,29.87,NE,42,0.0,4.0,61,0.00,,,0.59,VWS V14.00,2013-07-23 22:10:00,
2013-07-23 17:15:00,81.3,65.1,29.87,ENE,76,5.0,7.0,58,0.00,,,0.59,VWS V14.00,2013-07-23 22:15:00,
2013-07-23 17:20:00,81.3,65.6,29.87,ENE,75,0.0,7.0,59,0.00,,,0.59,VWS V14.00,2013-07-23 22:20:00,
2013-07-23 17:25:00,81.2,66.0,29.87,ENE,69,0.0,7.0,60,0.00,,,0.59,VWS V14.00,2013-07-23 22:25:00,
2013-07-23 17:30:00,81.1,65.4,29.87,NNE,27,0.0,7.0,59,0.00,,,0.59,VWS V14.00,2013-07-23 22:30:00,
2013-07-23 17:35:00,81.1,65.9,29.87,ENE,72,0.0,0.0,60,0.00,,,0.59,VWS V14.00,2013-07-23 22:35:00,
2013-07-23 17:40:00,81.4,66.7,29.87,NNE,14,0.0,5.0,61,0.00,,,0.59,VWS V14.00,2013-07-23 22:40:00,
2013-07-23 17:45:00,81.4,65.7,29.87,NE,56,0.0,7.0,59,0.00,,,0.59,VWS V14.00,2013-07-23 22:45:00,
2013-07-23 17:50:00,81.3,65.1,29.87,North,355,2.0,7.0,58,0.00,,,0.59,VWS V14.00,2013-07-23 22:50:00,
2013-07-23 17:55:00,81.2,66.0,29.88,North,355,3.0,10.0,60,0.00,,,0.59,VWS V14.00,2013-07-23 22:55:00,
2013-07-23 18:00:00,81.2,65.5,29.87,ENE,74,0.0,10.0,59,0.00,,,0.59,VWS V14.00,2013-07-23 23:00:00,
2013-07-23 18:05:00,81.0,64.8,29.87,East,82,0.0,10.0,58,0.00,,,0.59,VWS V14.00,2013-07-23 23:05:00,
2013-07-23 18:10:00,80.9,65.2,29.87,NNE,29,0.0,6.0,59,0.00,,,0.59,VWS V14.00,2013-07-23 23:10:00,
2013-07-23 18:15:00,81.1,64.9,29.87,East,87,0.0,6.0,58,0.00,,,0.59,VWS V14.00,2013-07-23 23:15:00,
2013-07-23 18:20:00,80.8,65.2,29.87,East,82,0.0,7.0,59,0.00,,,0.59,VWS V14.00,2013-07-23 23:20:00,
2013-07-23 18:25:00,80.6,64.5,29.87,East,92,0.0,7.0,58,0.00,,,0.59,VWS V14.00,2013-07-23 23:25:00,
2013-07-23 18:30:00,80.4,65.3,29.86,ENE,74,0.0,7.0,60,0.00,,,0.59,VWS V14.00,2013-07-23 23:30:00,
2013-07-23 18:35:00,80.2,65.1,29.86,ENE,62,0.0,8.0,60,0.00,,,0.59,VWS V14.00,2013-07-23 23:35:00,
2013-07-23 18:40:00,80.0,65.8,29.86,NE,37,0.0,4.0,62,0.00,,,0.59,VWS V14.00,2013-07-23 23:40:00,
2013-07-23 18:45:00,80.1,65.4,29.86,East,86,0.0,4.0,61,0.00,,,0.59,VWS V14.00,2013-07-23 23:45:00,
2013-07-23 18:50:00,80.0,65.4,29.86,ENE,74,0.0,4.0,61,0.00,,,0.59,VWS V14.00,2013-07-23 23:50:00,
2013-07-23 18:55:00,80.0,65.4,29.86,NE,49,0.0,5.0,61,0.00,,,0.59,VWS V14.00,2013-07-23 23:55:00,
2013-07-23 19:00:00,79.9,66.2,29.86,ENE,74,0.0,5.0,63,0.00,,,0.59,VWS V14.00,2013-07-24 00:00:00,
2013-07-23 19:05:00,80.0,66.3,29.86,East,83,0.0,5.0,63,0.00,,,0.59,VWS V14.00,2013-07-24 00:05:00,
2013-07-23 19:10:00,79.9,65.7,29.87,NNE,15,0.0,2.0,62,0.00,,,0.59,VWS V14.00,2013-07-24 00:10:00,
2013-07-23 19:15:00,79.8,65.2,29.86,NNE,21,0.0,2.0,61,0.00,,,0.59,VWS V14.00,2013-07-24 00:15:00,
2013-07-23 19:20:00,79.8,65.6,29.87,ENE,71,0.0,5.0,62,0.00,,,0.59,VWS V14.00,2013-07-24 00:20:00,
2013-07-23 19:25:00,79.7,65.5,29.86,NE,56,0.0,5.0,62,0.00,,,0.59,VWS V14.00,2013-07-24 00:25:00,
2013-07-23 19:30:00,79.5,65.8,29.86,ENE,75,0.0,5.0,63,0.00,,,0.59,VWS V14.00,2013-07-24 00:30:00,
2013-07-23 19:35:00,79.3,66.1,29.86,NE,49,0.0,5.0,64,0.00,,,0.59,VWS V14.00,2013-07-24 00:35:00,
2013-07-23 19:40:00,79.0,65.8,29.86,East,88,0.0,2.0,64,0.00,,,0.59,VWS V14.00,2013-07-24 00:40:00,
2013-07-23 19:45:00,78.9,66.2,29.87,ENE,63,0.0,2.0,65,0.00,,,0.59,VWS V14.00,2013-07-24 00:45:00,
2013-07-23 19:50:00,78.8,66.1,29.87,ENE,63,0.0,2.0,65,0.00,,,0.59,VWS V14.00,2013-07-24 00:50:00,
2013-07-23 19:55:00,78.7,66.4,29.87,NNE,30,0.0,2.0,66,0.00,,,0.59,VWS V14.00,2013-07-24 00:55:00,
2013-07-23 20:00:00,78.7,66.4,29.87,NE,48,0.0,2.0,66,0.00,,,0.59,VWS V14.00,2013-07-24 01:00:00,
2013-07-23 20:05:00,78.4,66.6,29.87,NE,44,0.0,2.0,67,0.00,,,0.59,VWS V14.00,2013-07-24 01:05:00,
2013-07-23 20:10:00,78.2,66.4,29.87,NE,44,0.0,0.0,67,0.00,,,0.59,VWS V14.00,2013-07-24 01:10:00,
2013-07-23 20:15:00,78.0,66.2,29.87,NE,44,0.0,0.0,67,0.00,,,0.59,VWS V14.00,2013-07-24 01:15:00,
2013-07-23 20:20:00,77.7,66.3,29.87,NNE,26,0.0,1.0,68,0.00,,,0.59,VWS V14.00,2013-07-24 01:20:00,
2013-07-23 20:25:00,77.3,65.9,29.88,NNW,335,0.0,1.0,68,0.00,,,0.59,VWS V14.00,2013-07-24 01:25:00,
2013-07-23 20:30:00,77.0,65.6,29.87,NNW,335,0.0,1.0,68,0.00,,,0.59,VWS V14.00,2013-07-24 01:30:00,
2013-07-23 20:35:00,76.7,65.8,29.87,North,5,0.0,1.0,69,0.00,,,0.59,VWS V14.00,2013-07-24 01:35:00,
2013-07-23 20:40:00,76.4,65.5,29.87,North,5,0.0,0.0,69,0.00,,,0.59,VWS V14.00,2013-07-24 01:40:00,
2013-07-23 20:45:00,76.0,65.1,29.88,North,360,0.0,0.0,69,0.00,,,0.59,VWS V14.00,2013-07-24 01:45:00,
2013-07-23 20:50:00,75.6,65.1,29.88,North,5,0.0,0.0,70,0.00,,,0.59,VWS V14.00,2013-07-24 01:50:00,
2013-07-23 20:55:00,75.3,65.3,29.88,North,5,0.0,0.0,71,0.00,,,0.59,VWS V14.00,2013-07-24 01:55:00,
2013-07-23 21:00:00,74.9,64.9,29.88,North,5,0.0,0.0,71,0.00,,,0.59,VWS V14.00,2013-07-24 02:00:00,
2013-07-23 21:05:00,74.6,64.6,29.89,NNW,338,0.0,0.0,71,0.00,,,0.59,VWS V14.00,2013-07-24 02:05:00,
2013-07-23 21:10:00,74.3,64.7,29.89,NNW,340,0.0,0.0,72,0.00,,,0.59,VWS V14.00,2013-07-24 02:10:00,
2013-07-23 21:15:00,74.1,64.5,29.89,NNW,340,0.0,0.0,72,0.00,,,0.59,VWS V14.00,2013-07-24 02:15:00,
2013-07-23 21:20:00,73.7,64.5,29.89,NNE,13,0.0,0.0,73,0.00,,,0.59,VWS V14.00,2013-07-24 02:20:00,
2013-07-23 21:25:00,73.4,64.6,29.89,NNE,14,0.0,0.0,74,0.00,,,0.59,VWS V14.00,2013-07-24 02:25:00,
2013-07-23 21:30:00,73.1,64.3,29.90,NNE,14,0.0,1.0,74,0.00,,,0.59,VWS V14.00,2013-07-24 02:30:00,
2013-07-23 21:35:00,72.9,64.5,29.90,NNE,15,0.0,1.0,75,0.00,,,0.59,VWS V14.00,2013-07-24 02:35:00,
2013-07-23 21:40:00,72.5,64.5,29.90,NNE,19,0.0,1.0,76,0.00,,,0.59,VWS V14.00,2013-07-24 02:40:00,
2013-07-23 21:45:00,72.2,64.2,29.90,North,5,0.0,2.0,76,0.00,,,0.59,VWS V14.00,2013-07-24 02:45:00,
2013-07-23 21:50:00,71.9,64.3,29.90,NE,56,0.0,2.0,77,0.00,,,0.59,VWS V14.00,2013-07-24 02:50:00,
2013-07-23 21:55:00,71.6,64.4,29.90,NE,37,0.0,2.0,78,0.00,,,0.59,VWS V14.00,2013-07-24 02:55:00,
2013-07-23 22:00:00,71.3,64.1,29.90,NNE,30,0.0,2.0,78,0.00,,,0.59,VWS V14.00,2013-07-24 03:00:00,
2013-07-23 22:05:00,71.1,64.3,29.90,NNE,30,0.0,2.0,79,0.00,,,0.59,VWS V14.00,2013-07-24 03:05:00,
2013-07-23 22:10:00,70.9,64.1,29.90,NNE,30,0.0,0.0,79,0.00,,,0.59,VWS V14.00,2013-07-24 03:10:00,
2013-07-23 22:15:00,70.7,63.9,29.91,NNE,29,0.0,2.0,79,0.00,,,0.59,VWS V14.00,2013-07-24 03:15:00,
2013-07-23 22:20:00,70.5,63.7,29.90,NNE,17,0.0,2.0,79,0.00,,,0.59,VWS V14.00,2013-07-24 03:20:00,
2013-07-23 22:25:00,70.3,63.8,29.90,NE,37,0.0,2.0,80,0.00,,,0.59,VWS V14.00,2013-07-24 03:25:00,
2013-07-23 22:30:00,70.1,63.7,29.90,NE,38,0.0,2.0,80,0.00,,,0.59,VWS V14.00,2013-07-24 03:30:00,
2013-07-23 22:35:00,70.0,63.5,29.90,NE,38,0.0,2.0,80,0.00,,,0.59,VWS V14.00,2013-07-24 03:35:00,
2013-07-23 22:40:00,69.9,63.5,29.91,North,5,0.0,3.0,80,0.00,,,0.59,VWS V14.00,2013-07-24 03:40:00,
2013-07-23 22:45:00,69.8,63.7,29.90,North,360,0.0,3.0,81,0.00,,,0.59,VWS V14.00,2013-07-24 03:45:00,
2013-07-23 22:50:00,69.6,63.5,29.91,North,360,0.0,3.0,81,0.00,,,0.59,VWS V14.00,2013-07-24 03:50:00,
2013-07-23 22:55:00,69.5,63.4,29.91,North,5,0.0,3.0,81,0.00,,,0.59,VWS V14.00,2013-07-24 03:55:00,
2013-07-23 23:00:00,69.4,63.3,29.91,North,5,0.0,3.0,81,0.00,,,0.59,VWS V14.00,2013-07-24 04:00:00,
2013-07-23 23:01:00,69.4,63.3,29.91,North,360,0.0,3.0,81,0.00,,,0.59,VWS V14.00,2013-07-24 04:01:00,
2013-07-23 23:02:00,69.4,63.3,29.91,NE,34,0.0,3.0,81,0.00,,,0.59,VWS V14.00,2013-07-24 04:02:00,
2013-07-23 23:07:00,69.3,63.2,29.91,NNE,15,0.0,2.0,81,0.00,,,0.59,VWS V14.00,2013-07-24 04:07:00,
2013-07-23 23:12:00,69.2,63.1,29.91,NNE,26,0.0,5.0,81,0.00,,,0.59,VWS V14.00,2013-07-24 04:12:00,
2013-07-23 23:17:00,69.2,63.1,29.91,NNE,24,0.0,5.0,81,0.00,,,0.59,VWS V14.00,2013-07-24 04:17:00,
2013-07-23 23:22:00,69.1,63.0,29.91,NNE,19,0.0,5.0,81,0.00,,,0.59,VWS V14.00,2013-07-24 04:22:00,
2013-07-23 23:27:00,69.0,62.9,29.92,NNE,19,0.0,5.0,81,0.00,,,0.59,VWS V14.00,2013-07-24 04:27:00,
2013-07-23 23:32:00,68.9,62.8,29.92,North,10,0.0,5.0,81,0.00,,,0.59,VWS V14.00,2013-07-24 04:32:00,
2013-07-23 23:37:00,68.8,62.7,29.91,NE,42,0.0,0.0,81,0.00,,,0.59,VWS V14.00,2013-07-24 04:37:00,
2013-07-23 23:42:00,68.8,62.7,29.91,NE,52,0.0,3.0,81,0.00,,,0.59,VWS V14.00,2013-07-24 04:42:00,
2013-07-23 23:47:00,68.7,62.6,29.92,NE,53,0.0,3.0,81,0.00,,,0.59,VWS V14.00,2013-07-24 04:47:00,
2013-07-23 23:52:00,68.6,62.5,29.92,NE,50,0.0,3.0,81,0.00,,,0.59,VWS V14.00,2013-07-24 04:52:00,
2013-07-23 23:57:00,68.6,62.2,29.92,NE,49,0.0,3.0,80,0.00,,,0.59,VWS V14.00,2013-07-24 04:57:00,